GFSSW_prec_pwat_336.txt.gz
Precipitable_Water
0.76 0.74 0.72 0.69 0.68 0.66 0.64 0.62 0.60 0.59 0.55 0.50 0.46 0.48 0.58 0.66 0.73 0.68 0.67 0.78 1.05 1.31 1.35 1.33 1.43 1.47 1.54 1.20 1.22 1.17 0.81 0.70 0.68 0.70 0.77 1.01 0.95 0.95 0.88 0.84 0.98 1.02 0.93 1.07 1.24
0.78 0.76 0.74 0.73 0.70 0.67 0.65 0.63 0.61 0.59 0.57 0.51 0.44 0.41 0.47 0.58 0.59 0.53 0.72 0.79 1.03 1.26 1.14 1.00 0.98 1.23 1.13 1.06 1.09 1.01 0.77 0.76 0.90 0.86 0.81 0.89 1.00 0.94 0.85 0.84 0.90 0.96 1.07 1.14 1.18
0.80 0.77 0.75 0.73 0.71 0.69 0.66 0.62 0.61 0.59 0.57 0.52 0.44 0.40 0.41 0.48 0.40 0.41 0.70 0.76 1.08 1.20 0.97 0.88 1.03 1.07 0.97 1.02 1.00 1.00 0.80 0.93 0.91 0.91 0.97 0.93 0.94 0.99 0.98 0.86 0.80 0.83 0.92 1.05 1.08
0.82 0.79 0.75 0.73 0.71 0.69 0.66 0.64 0.61 0.59 0.56 0.51 0.43 0.40 0.40 0.35 0.21 0.44 0.75 0.69 1.05 1.17 0.84 0.79 0.88 0.88 0.86 0.89 1.00 0.92 1.04 0.97 0.96 1.03 0.98 0.93 1.02 0.92 0.96 0.98 0.96 0.94 0.93 1.00 1.02
0.82 0.79 0.77 0.74 0.70 0.67 0.66 0.64 0.62 0.57 0.51 0.46 0.42 0.41 0.33 0.16 0.17 0.49 0.76 0.71 0.95 0.92 0.76 0.73 0.82 0.81 0.75 0.90 0.97 0.96 0.99 1.04 1.03 1.06 1.04 1.05 0.96 0.96 0.95 1.00 1.00 1.01 0.98 1.03 1.05
0.82 0.80 0.77 0.75 0.73 0.69 0.65 0.64 0.60 0.54 0.46 0.40 0.42 0.42 0.25 0.11 0.22 0.44 0.63 0.71 0.79 0.74 0.67 0.72 0.80 0.89 0.83 0.89 0.91 0.99 0.98 0.98 1.04 1.04 1.03 0.96 0.97 0.96 0.98 1.08 0.88 0.97 1.02 1.13 1.13
0.79 0.78 0.77 0.75 0.72 0.71 0.68 0.63 0.58 0.54 0.46 0.43 0.43 0.38 0.20 0.16 0.30 0.33 0.39 0.60 0.58 0.64 0.61 0.65 0.82 0.78 0.81 0.84 0.97 0.95 0.84 0.91 0.95 0.97 0.94 1.02 0.87 0.90 1.03 1.03 0.93 0.89 0.99 1.12 1.21
0.72 0.72 0.73 0.73 0.72 0.69 0.71 0.64 0.60 0.61 0.57 0.53 0.47 0.35 0.15 0.21 0.25 0.27 0.33 0.35 0.49 0.54 0.61 0.65 0.79 0.80 0.81 0.91 0.83 0.77 0.78 0.70 0.81 0.88 0.93 0.91 0.73 0.96 1.11 0.99 0.87 0.99 1.03 1.00 1.13
0.66 0.65 0.67 0.69 0.70 0.69 0.68 0.65 0.67 0.65 0.61 0.62 0.48 0.26 0.14 0.26 0.23 0.26 0.32 0.28 0.36 0.48 0.54 0.61 0.69 0.73 0.77 0.68 0.64 0.67 0.60 0.62 0.66 0.82 0.87 0.85 0.79 1.00 1.15 1.08 0.93 0.94 1.05 1.08 1.11
0.71 0.65 0.61 0.62 0.69 0.70 0.67 0.66 0.69 0.71 0.70 0.67 0.55 0.30 0.22 0.22 0.30 0.29 0.34 0.29 0.28 0.34 0.44 0.48 0.57 0.59 0.61 0.60 0.50 0.54 0.56 0.62 0.58 0.72 0.78 0.75 0.77 0.94 1.08 1.08 1.01 0.98 1.01 1.06 1.11
0.73 0.70 0.64 0.60 0.61 0.70 0.65 0.55 0.46 0.42 0.43 0.31 0.34 0.27 0.25 0.32 0.33 0.26 0.31 0.25 0.24 0.26 0.28 0.41 0.40 0.43 0.54 0.59 0.61 0.58 0.56 0.55 0.59 0.66 0.74 0.72 0.74 0.85 0.99 1.08 1.01 1.01 1.00 1.04 1.10
0.71 0.68 0.66 0.61 0.62 0.65 0.66 0.49 0.50 0.54 0.30 0.37 0.36 0.32 0.34 0.34 0.25 0.26 0.27 0.20 0.18 0.16 0.24 0.28 0.29 0.45 0.60 0.61 0.55 0.53 0.51 0.51 0.58 0.66 0.65 0.67 0.67 0.80 0.91 0.94 1.04 1.05 1.06 1.05 1.09
0.69 0.71 0.68 0.63 0.64 0.63 0.54 0.56 0.71 0.67 0.32 0.34 0.39 0.34 0.30 0.31 0.23 0.25 0.21 0.19 0.17 0.15 0.18 0.21 0.29 0.43 0.48 0.52 0.49 0.49 0.48 0.50 0.46 0.53 0.64 0.54 0.59 0.67 0.83 0.94 1.03 1.07 1.14 1.16 1.12
0.69 0.69 0.72 0.66 0.55 0.58 0.52 0.66 0.73 0.66 0.25 0.33 0.32 0.37 0.32 0.31 0.22 0.33 0.21 0.22 0.18 0.15 0.15 0.19 0.29 0.31 0.39 0.44 0.50 0.46 0.54 0.48 0.45 0.44 0.38 0.49 0.50 0.59 0.71 0.77 0.88 0.99 1.05 1.09 1.15
0.71 0.72 0.72 0.75 0.55 0.50 0.60 0.68 0.71 0.54 0.19 0.38 0.34 0.46 0.34 0.27 0.29 0.26 0.24 0.20 0.17 0.15 0.16 0.14 0.19 0.24 0.31 0.38 0.48 0.47 0.50 0.46 0.43 0.40 0.39 0.46 0.44 0.65 0.63 0.66 0.74 0.88 0.98 1.05 1.08
0.61 0.72 0.70 0.73 0.66 0.62 0.70 0.70 0.55 0.25 0.17 0.35 0.39 0.35 0.26 0.27 0.25 0.28 0.19 0.22 0.21 0.17 0.16 0.15 0.19 0.17 0.24 0.34 0.41 0.48 0.45 0.42 0.44 0.39 0.30 0.41 0.45 0.49 0.59 0.60 0.64 0.78 0.91 0.94 0.96
0.53 0.60 0.68 0.71 0.60 0.73 0.71 0.53 0.28 0.17 0.30 0.36 0.35 0.34 0.28 0.25 0.23 0.22 0.19 0.17 0.13 0.12 0.12 0.15 0.15 0.16 0.16 0.16 0.24 0.28 0.23 0.22 0.25 0.31 0.26 0.44 0.41 0.49 0.58 0.56 0.55 0.60 0.78 0.87 0.94
0.49 0.48 0.67 0.65 0.80 0.77 0.63 0.35 0.20 0.20 0.34 0.44 0.38 0.39 0.29 0.27 0.26 0.23 0.19 0.16 0.17 0.16 0.14 0.13 0.11 0.16 0.16 0.14 0.15 0.17 0.21 0.19 0.22 0.28 0.27 0.39 0.33 0.47 0.53 0.55 0.58 0.65 0.80 0.86 0.90
0.50 0.46 0.54 0.76 0.88 0.76 0.50 0.25 0.24 0.22 0.38 0.35 0.40 0.36 0.35 0.32 0.28 0.24 0.22 0.19 0.18 0.18 0.15 0.14 0.12 0.18 0.18 0.17 0.19 0.19 0.19 0.25 0.24 0.29 0.26 0.30 0.37 0.42 0.47 0.54 0.56 0.74 0.79 0.82 0.89
0.44 0.42 0.51 0.80 0.90 0.64 0.42 0.29 0.28 0.31 0.39 0.39 0.37 0.37 0.34 0.33 0.28 0.28 0.23 0.23 0.22 0.22 0.21 0.19 0.15 0.17 0.17 0.18 0.19 0.21 0.23 0.19 0.21 0.20 0.22 0.25 0.27 0.29 0.39 0.41 0.56 0.70 0.74 0.82 0.92
0.47 0.39 0.60 0.76 0.73 0.49 0.36 0.34 0.32 0.35 0.39 0.39 0.40 0.36 0.36 0.34 0.31 0.26 0.26 0.25 0.23 0.22 0.24 0.21 0.15 0.18 0.17 0.16 0.17 0.17 0.19 0.21 0.26 0.26 0.23 0.23 0.25 0.30 0.34 0.42 0.54 0.71 0.78 0.85 0.88
0.43 0.33 0.65 0.75 0.41 0.45 0.40 0.39 0.36 0.37 0.41 0.45 0.47 0.43 0.41 0.38 0.31 0.28 0.26 0.28 0.28 0.25 0.18 0.21 0.17 0.17 0.14 0.19 0.22 0.22 0.20 0.22 0.21 0.24 0.22 0.20 0.21 0.29 0.42 0.57 0.65 0.73 0.76 0.92 0.96
0.36 0.42 0.68 0.66 0.34 0.36 0.45 0.42 0.38 0.42 0.45 0.47 0.42 0.44 0.45 0.39 0.34 0.29 0.30 0.33 0.30 0.27 0.23 0.22 0.16 0.15 0.16 0.17 0.18 0.19 0.22 0.24 0.26 0.22 0.18 0.19 0.19 0.38 0.50 0.55 0.67 0.74 0.88 0.96 0.99
0.40 0.36 0.47 0.55 0.54 0.43 0.44 0.47 0.44 0.50 0.49 0.55 0.51 0.54 0.49 0.42 0.45 0.42 0.40 0.37 0.34 0.30 0.32 0.29 0.19 0.16 0.16 0.17 0.19 0.16 0.22 0.24 0.22 0.17 0.18 0.21 0.22 0.38 0.45 0.53 0.65 0.78 0.96 0.99 0.96
0.44 0.41 0.55 0.39 0.42 0.48 0.51 0.54 0.47 0.41 0.54 0.60 0.52 0.52 0.50 0.42 0.46 0.44 0.46 0.52 0.40 0.37 0.31 0.27 0.19 0.18 0.25 0.25 0.23 0.23 0.20 0.20 0.19 0.21 0.20 0.22 0.21 0.33 0.46 0.55 0.70 0.87 1.00 1.00 0.99
0.43 0.40 0.49 0.48 0.50 0.46 0.48 0.49 0.51 0.51 0.52 0.53 0.54 0.57 0.59 0.51 0.53 0.50 0.54 0.54 0.37 0.39 0.30 0.24 0.20 0.23 0.21 0.25 0.29 0.27 0.30 0.25 0.23 0.23 0.22 0.23 0.25 0.48 0.55 0.68 0.77 0.87 1.00 1.01 1.02
0.56 0.57 0.47 0.42 0.42 0.42 0.43 0.46 0.55 0.63 0.56 0.61 0.64 0.59 0.59 0.62 0.65 0.66 0.67 0.66 0.55 0.42 0.31 0.23 0.25 0.26 0.23 0.31 0.34 0.27 0.32 0.35 0.28 0.27 0.26 0.23 0.37 0.56 0.55 0.69 0.79 0.92 1.04 1.05 1.11

GFSSW_prec_pwat_339.txt.gz
Precipitable_Water
0.74 0.72 0.69 0.66 0.65 0.65 0.64 0.62 0.60 0.57 0.54 0.52 0.51 0.50 0.58 0.69 0.66 0.78 0.69 0.74 1.16 1.26 1.41 1.45 1.55 1.51 1.58 1.21 1.27 1.33 0.81 0.67 0.71 0.74 0.86 1.01 0.75 0.81 0.97 0.91 0.98 1.07 0.98 1.13 1.26
0.76 0.73 0.70 0.68 0.66 0.64 0.63 0.62 0.61 0.59 0.55 0.51 0.49 0.43 0.46 0.59 0.60 0.56 0.81 0.83 1.04 1.21 1.37 1.08 0.99 1.32 1.21 1.12 1.08 1.02 0.74 0.73 0.87 0.85 0.82 0.98 0.90 0.82 0.81 0.87 0.89 0.93 1.08 1.16 1.18
0.77 0.74 0.71 0.69 0.67 0.64 0.63 0.61 0.61 0.59 0.56 0.51 0.47 0.41 0.40 0.49 0.47 0.52 0.75 0.78 0.97 1.16 1.22 0.95 0.95 1.14 0.99 1.03 1.05 0.95 0.78 0.87 0.86 0.95 0.96 0.92 0.92 1.08 1.06 0.84 0.85 0.88 0.98 1.07 1.09
0.79 0.76 0.73 0.70 0.67 0.65 0.63 0.61 0.60 0.57 0.54 0.50 0.44 0.39 0.39 0.36 0.27 0.55 0.65 0.69 1.00 1.16 1.12 0.79 0.84 0.94 0.92 0.90 1.06 0.90 0.94 0.93 0.97 0.98 0.98 0.99 1.01 0.90 0.92 0.95 0.95 0.94 1.01 1.04 1.04
0.78 0.76 0.73 0.70 0.68 0.66 0.62 0.61 0.60 0.57 0.50 0.44 0.40 0.40 0.34 0.23 0.23 0.46 0.62 0.65 0.84 1.01 0.92 0.70 0.81 0.89 0.82 0.93 1.01 0.98 0.94 0.95 1.00 0.99 1.00 1.01 0.94 0.90 0.91 0.89 1.03 0.99 0.97 0.96 1.02
0.73 0.73 0.71 0.69 0.67 0.66 0.63 0.61 0.59 0.55 0.48 0.40 0.38 0.41 0.30 0.16 0.27 0.37 0.52 0.67 0.68 0.85 0.77 0.73 0.78 0.87 0.92 0.90 0.96 0.98 0.99 0.96 1.01 0.99 0.99 0.97 0.92 0.92 0.95 0.92 0.87 0.96 0.99 1.02 1.00
0.67 0.66 0.66 0.67 0.67 0.65 0.64 0.63 0.57 0.55 0.53 0.46 0.40 0.37 0.24 0.19 0.31 0.29 0.35 0.58 0.68 0.75 0.65 0.71 0.77 0.83 0.89 0.82 0.96 0.94 0.86 0.92 0.94 0.97 0.90 1.13 0.89 0.92 0.95 0.90 0.89 0.86 1.02 1.12 1.18
0.65 0.63 0.62 0.63 0.64 0.65 0.64 0.64 0.60 0.59 0.56 0.54 0.47 0.38 0.20 0.25 0.25 0.22 0.31 0.36 0.62 0.56 0.63 0.65 0.76 0.80 0.85 0.86 0.85 0.80 0.84 0.79 0.82 0.88 0.89 1.04 0.82 0.99 1.05 0.86 0.84 0.93 1.01 1.02 1.16
0.70 0.65 0.60 0.59 0.60 0.64 0.65 0.63 0.63 0.65 0.60 0.58 0.55 0.34 0.19 0.25 0.17 0.19 0.28 0.27 0.36 0.47 0.56 0.64 0.70 0.72 0.75 0.73 0.68 0.71 0.67 0.67 0.74 0.86 0.89 0.93 0.83 1.00 1.11 0.96 0.87 0.92 1.00 1.05 1.10
0.70 0.66 0.62 0.57 0.54 0.62 0.65 0.64 0.65 0.63 0.69 0.64 0.53 0.32 0.26 0.16 0.26 0.28 0.31 0.29 0.29 0.36 0.43 0.50 0.54 0.57 0.64 0.65 0.76 0.55 0.62 0.60 0.62 0.79 0.77 0.78 0.82 0.96 1.08 1.05 0.90 0.94 1.02 1.04 1.11
0.67 0.64 0.63 0.60 0.55 0.58 0.61 0.64 0.52 0.55 0.50 0.36 0.41 0.32 0.29 0.30 0.35 0.26 0.29 0.24 0.24 0.26 0.29 0.41 0.39 0.43 0.57 0.60 0.65 0.57 0.57 0.57 0.59 0.63 0.76 0.75 0.83 0.89 0.97 1.05 1.00 0.94 0.97 1.05 1.13
0.64 0.66 0.64 0.60 0.57 0.63 0.64 0.51 0.52 0.55 0.32 0.38 0.34 0.32 0.35 0.35 0.26 0.21 0.29 0.19 0.18 0.18 0.25 0.34 0.33 0.45 0.57 0.64 0.61 0.55 0.55 0.61 0.56 0.60 0.61 0.70 0.69 0.93 0.94 0.97 1.03 1.02 1.00 1.03 1.08
0.66 0.63 0.65 0.63 0.58 0.62 0.54 0.51 0.66 0.65 0.36 0.36 0.38 0.35 0.31 0.30 0.19 0.24 0.25 0.21 0.18 0.17 0.19 0.23 0.30 0.40 0.46 0.56 0.56 0.53 0.52 0.59 0.52 0.52 0.53 0.57 0.54 0.77 0.90 0.95 1.02 1.07 1.12 1.09 1.08
0.65 0.66 0.63 0.65 0.59 0.53 0.55 0.62 0.68 0.64 0.28 0.39 0.35 0.38 0.32 0.29 0.20 0.30 0.28 0.20 0.18 0.16 0.17 0.20 0.28 0.32 0.35 0.43 0.55 0.48 0.56 0.54 0.47 0.41 0.45 0.54 0.40 0.71 0.91 0.84 0.87 0.96 1.07 1.12 1.11
0.57 0.62 0.65 0.69 0.58 0.51 0.61 0.64 0.65 0.55 0.22 0.44 0.36 0.45 0.36 0.24 0.29 0.24 0.31 0.19 0.18 0.17 0.18 0.17 0.18 0.25 0.28 0.36 0.48 0.50 0.61 0.54 0.49 0.39 0.38 0.39 0.38 0.75 0.85 0.82 0.78 0.89 0.99 1.09 1.14
0.53 0.55 0.61 0.65 0.71 0.62 0.65 0.64 0.57 0.27 0.19 0.35 0.37 0.35 0.26 0.25 0.28 0.33 0.19 0.20 0.22 0.20 0.18 0.17 0.21 0.22 0.23 0.31 0.43 0.51 0.50 0.48 0.43 0.40 0.32 0.35 0.40 0.69 0.90 0.85 0.80 0.86 0.93 1.01 1.06
0.46 0.49 0.52 0.62 0.62 0.75 0.67 0.55 0.30 0.21 0.33 0.34 0.36 0.32 0.26 0.24 0.24 0.26 0.18 0.14 0.14 0.13 0.15 0.15 0.16 0.18 0.16 0.18 0.31 0.37 0.38 0.31 0.31 0.31 0.29 0.38 0.41 0.57 0.75 0.79 0.61 0.63 0.78 0.91 1.06
0.45 0.45 0.46 0.60 0.67 0.73 0.64 0.40 0.25 0.28 0.30 0.47 0.35 0.34 0.27 0.29 0.26 0.24 0.19 0.15 0.15 0.15 0.14 0.14 0.11 0.15 0.16 0.13 0.17 0.24 0.27 0.23 0.21 0.24 0.29 0.45 0.33 0.37 0.73 0.66 0.62 0.54 0.73 0.85 0.96
0.49 0.47 0.48 0.62 0.76 0.75 0.53 0.29 0.30 0.32 0.41 0.35 0.36 0.34 0.32 0.29 0.29 0.24 0.22 0.19 0.19 0.16 0.15 0.15 0.15 0.20 0.18 0.17 0.14 0.16 0.16 0.20 0.22 0.26 0.29 0.37 0.50 0.41 0.51 0.53 0.59 0.67 0.78 0.81 0.87
0.46 0.41 0.49 0.67 0.77 0.64 0.45 0.35 0.35 0.36 0.38 0.35 0.34 0.40 0.39 0.35 0.28 0.28 0.24 0.24 0.20 0.19 0.20 0.20 0.18 0.19 0.18 0.18 0.17 0.17 0.25 0.17 0.20 0.20 0.24 0.27 0.28 0.32 0.45 0.46 0.58 0.69 0.78 0.83 0.89
0.49 0.38 0.71 0.68 0.72 0.49 0.34 0.37 0.38 0.37 0.33 0.36 0.39 0.41 0.38 0.41 0.34 0.31 0.30 0.28 0.25 0.24 0.20 0.18 0.20 0.20 0.19 0.16 0.14 0.15 0.18 0.20 0.22 0.22 0.20 0.25 0.31 0.42 0.39 0.42 0.48 0.72 0.81 0.88 0.92
0.45 0.35 0.73 0.66 0.37 0.37 0.35 0.43 0.47 0.37 0.36 0.39 0.44 0.43 0.41 0.42 0.38 0.32 0.28 0.30 0.30 0.23 0.21 0.20 0.19 0.17 0.20 0.19 0.18 0.20 0.17 0.20 0.19 0.22 0.28 0.26 0.25 0.35 0.37 0.46 0.60 0.77 0.80 0.89 0.96
0.41 0.44 0.68 0.62 0.33 0.36 0.41 0.44 0.43 0.35 0.39 0.42 0.41 0.43 0.47 0.43 0.38 0.36 0.31 0.34 0.32 0.25 0.23 0.22 0.18 0.16 0.18 0.18 0.18 0.17 0.22 0.20 0.21 0.23 0.25 0.27 0.27 0.39 0.42 0.57 0.73 0.81 0.87 0.92 0.95
0.43 0.40 0.48 0.49 0.49 0.53 0.44 0.41 0.40 0.44 0.45 0.49 0.51 0.51 0.48 0.44 0.44 0.46 0.34 0.40 0.33 0.29 0.28 0.25 0.19 0.16 0.18 0.21 0.21 0.17 0.17 0.21 0.22 0.23 0.25 0.24 0.23 0.38 0.46 0.54 0.69 0.84 0.97 0.98 0.96
0.47 0.43 0.68 0.46 0.36 0.40 0.44 0.52 0.47 0.47 0.45 0.53 0.51 0.50 0.51 0.46 0.49 0.42 0.46 0.47 0.39 0.32 0.29 0.25 0.22 0.20 0.19 0.29 0.25 0.24 0.20 0.17 0.22 0.23 0.23 0.24 0.28 0.31 0.47 0.66 0.72 0.91 1.04 0.97 0.92
0.52 0.45 0.50 0.45 0.59 0.54 0.51 0.46 0.50 0.52 0.52 0.48 0.50 0.52 0.56 0.54 0.65 0.66 0.64 0.57 0.53 0.40 0.32 0.30 0.24 0.25 0.20 0.26 0.25 0.22 0.27 0.21 0.22 0.21 0.22 0.26 0.27 0.55 0.62 0.71 0.72 0.95 1.02 0.97 0.95
0.64 0.57 0.43 0.43 0.38 0.40 0.41 0.42 0.50 0.59 0.64 0.63 0.67 0.65 0.60 0.68 0.71 0.76 0.67 0.67 0.63 0.52 0.37 0.30 0.25 0.24 0.22 0.25 0.26 0.26 0.27 0.28 0.28 0.23 0.24 0.24 0.41 0.65 0.58 0.63 0.76 0.99 1.08 1.08 1.09

GFSSW_prec_pwat_342.txt.gz
Precipitable_Water
0.73 0.71 0.69 0.67 0.65 0.64 0.62 0.60 0.57 0.56 0.56 0.52 0.48 0.50 0.60 0.66 0.62 0.76 0.74 0.80 1.05 1.22 1.33 1.53 1.63 1.64 1.94 1.45 1.28 1.27 0.70 0.67 0.76 0.78 0.83 0.78 0.73 0.94 0.99 0.93 1.05 1.15 1.08 1.11 1.24
0.74 0.71 0.69 0.67 0.65 0.63 0.60 0.59 0.57 0.57 0.54 0.52 0.47 0.42 0.46 0.59 0.53 0.54 0.80 0.85 0.97 1.14 1.20 1.35 0.97 1.36 1.44 1.31 1.17 0.94 0.68 0.81 0.86 0.88 0.91 0.87 0.77 0.84 0.86 0.92 0.92 0.99 1.11 1.16 1.24
0.73 0.71 0.69 0.66 0.64 0.62 0.60 0.58 0.57 0.56 0.55 0.50 0.46 0.41 0.39 0.46 0.45 0.50 0.76 0.81 0.90 1.07 1.07 1.27 0.96 1.16 1.25 1.03 1.10 0.90 0.69 0.79 0.91 0.94 0.92 0.86 0.96 1.12 1.08 0.86 0.87 0.93 0.99 1.06 1.12
0.72 0.69 0.66 0.65 0.63 0.61 0.59 0.58 0.56 0.55 0.52 0.47 0.43 0.39 0.37 0.32 0.30 0.62 0.68 0.71 0.83 0.97 1.00 1.02 0.89 1.02 1.12 0.95 1.13 0.86 0.84 0.84 0.84 0.90 1.07 0.87 0.94 0.86 1.03 1.00 0.95 1.03 1.05 1.06 1.06
0.67 0.66 0.65 0.64 0.62 0.61 0.59 0.57 0.56 0.54 0.50 0.43 0.40 0.39 0.31 0.23 0.26 0.51 0.53 0.56 0.74 0.87 0.90 0.84 0.73 0.90 0.95 0.96 1.06 0.91 0.84 0.86 0.91 0.97 0.94 0.95 0.87 0.86 0.79 0.93 1.03 1.05 1.01 1.02 1.10
0.63 0.62 0.62 0.62 0.62 0.61 0.60 0.58 0.55 0.53 0.52 0.47 0.40 0.39 0.27 0.15 0.30 0.39 0.48 0.60 0.53 0.78 0.85 0.75 0.68 0.88 1.03 0.91 0.93 0.98 0.92 0.90 0.93 0.90 1.04 0.87 0.81 0.82 0.78 0.90 0.90 0.99 1.01 1.03 1.04
0.64 0.62 0.61 0.59 0.59 0.59 0.60 0.60 0.58 0.54 0.53 0.53 0.46 0.36 0.25 0.23 0.32 0.33 0.30 0.40 0.59 0.64 0.75 0.71 0.67 0.77 0.94 0.93 0.95 0.95 0.89 0.94 0.90 0.90 1.01 0.99 0.97 0.85 0.79 0.85 0.84 0.87 0.99 1.05 1.09
0.66 0.62 0.58 0.56 0.55 0.55 0.59 0.60 0.60 0.56 0.55 0.55 0.54 0.36 0.21 0.26 0.27 0.23 0.24 0.29 0.57 0.64 0.73 0.61 0.65 0.69 0.86 0.96 0.89 0.99 1.07 0.90 0.87 0.86 0.98 1.03 0.88 0.93 0.91 0.81 0.80 0.90 0.95 0.99 1.07
0.64 0.63 0.60 0.55 0.51 0.52 0.57 0.59 0.60 0.57 0.58 0.59 0.52 0.44 0.23 0.27 0.19 0.19 0.19 0.23 0.32 0.53 0.54 0.63 0.63 0.62 0.77 0.75 0.88 0.91 0.80 0.75 0.75 0.83 0.88 1.01 0.87 0.95 0.97 0.87 0.80 0.87 1.01 1.04 1.10
0.60 0.60 0.59 0.58 0.54 0.48 0.56 0.61 0.68 0.64 0.63 0.63 0.52 0.36 0.35 0.21 0.20 0.17 0.21 0.26 0.26 0.31 0.39 0.46 0.53 0.50 0.61 0.77 0.74 0.80 0.88 0.73 0.68 0.73 0.75 0.76 0.91 0.93 0.97 0.91 0.85 0.88 0.97 1.02 1.10
0.60 0.59 0.58 0.56 0.56 0.52 0.55 0.64 0.56 0.59 0.55 0.41 0.47 0.36 0.35 0.28 0.33 0.28 0.26 0.25 0.25 0.25 0.26 0.35 0.37 0.38 0.52 0.75 0.72 0.77 0.76 0.66 0.58 0.57 0.72 0.85 0.79 0.91 0.93 0.94 0.90 0.95 0.97 0.97 1.09
0.60 0.59 0.57 0.58 0.56 0.53 0.64 0.50 0.49 0.53 0.32 0.39 0.37 0.35 0.39 0.38 0.27 0.27 0.27 0.21 0.17 0.17 0.22 0.28 0.28 0.39 0.50 0.74 0.74 0.69 0.63 0.76 0.69 0.63 0.61 0.81 0.78 0.97 1.01 0.99 1.01 0.98 1.03 1.03 1.08
0.59 0.59 0.57 0.55 0.60 0.61 0.52 0.52 0.58 0.61 0.36 0.31 0.36 0.30 0.31 0.30 0.24 0.26 0.21 0.22 0.17 0.16 0.19 0.21 0.32 0.37 0.41 0.48 0.61 0.57 0.56 0.62 0.69 0.58 0.49 0.54 0.66 0.97 1.17 1.14 1.10 1.05 1.08 1.11 1.09
0.54 0.56 0.60 0.56 0.59 0.55 0.56 0.61 0.62 0.60 0.27 0.33 0.36 0.35 0.33 0.29 0.22 0.24 0.27 0.22 0.18 0.16 0.17 0.19 0.27 0.34 0.29 0.39 0.50 0.50 0.57 0.52 0.52 0.43 0.36 0.65 0.51 0.72 0.87 0.97 0.97 1.04 1.09 1.10 1.11
0.48 0.50 0.54 0.64 0.56 0.54 0.62 0.59 0.60 0.53 0.25 0.50 0.41 0.51 0.35 0.24 0.25 0.20 0.32 0.24 0.18 0.17 0.18 0.16 0.20 0.24 0.26 0.31 0.41 0.49 0.57 0.59 0.52 0.44 0.37 0.40 0.45 0.67 0.74 0.70 0.85 1.00 1.12 1.15 1.13
0.41 0.44 0.51 0.57 0.64 0.65 0.63 0.60 0.56 0.28 0.20 0.41 0.42 0.31 0.28 0.24 0.28 0.30 0.28 0.26 0.19 0.18 0.19 0.18 0.22 0.20 0.23 0.29 0.38 0.43 0.49 0.51 0.47 0.40 0.30 0.36 0.43 0.68 0.75 0.74 0.81 1.01 1.10 1.12 1.17
0.41 0.40 0.43 0.51 0.57 0.72 0.64 0.53 0.31 0.21 0.39 0.34 0.38 0.37 0.27 0.24 0.22 0.29 0.26 0.17 0.14 0.14 0.16 0.17 0.17 0.20 0.21 0.21 0.27 0.32 0.37 0.33 0.33 0.30 0.28 0.38 0.50 0.72 0.72 0.66 0.80 0.89 0.98 1.01 1.16
0.41 0.41 0.37 0.36 0.56 0.66 0.62 0.41 0.25 0.38 0.32 0.48 0.38 0.36 0.26 0.28 0.25 0.26 0.25 0.15 0.15 0.17 0.15 0.15 0.14 0.16 0.18 0.15 0.16 0.21 0.31 0.30 0.27 0.25 0.29 0.44 0.44 0.62 0.84 0.76 0.75 0.78 1.04 1.00 1.04
0.43 0.46 0.46 0.52 0.58 0.66 0.52 0.31 0.27 0.35 0.38 0.39 0.37 0.30 0.33 0.30 0.29 0.28 0.24 0.20 0.17 0.14 0.14 0.14 0.16 0.19 0.16 0.17 0.14 0.15 0.22 0.29 0.26 0.26 0.23 0.35 0.45 0.55 0.75 0.78 0.70 0.66 0.92 0.90 0.97
0.41 0.40 0.40 0.65 0.64 0.60 0.43 0.33 0.39 0.44 0.39 0.40 0.29 0.41 0.36 0.37 0.27 0.28 0.26 0.26 0.22 0.21 0.17 0.17 0.18 0.23 0.20 0.19 0.17 0.13 0.19 0.17 0.16 0.14 0.18 0.31 0.44 0.48 0.60 0.63 0.65 0.75 0.88 0.87 0.96
0.47 0.49 0.67 0.68 0.59 0.48 0.31 0.32 0.42 0.45 0.39 0.31 0.34 0.44 0.41 0.49 0.45 0.30 0.32 0.33 0.27 0.23 0.21 0.18 0.20 0.23 0.22 0.18 0.16 0.15 0.13 0.19 0.24 0.19 0.19 0.20 0.32 0.46 0.53 0.52 0.59 0.70 0.78 0.85 0.91
0.43 0.37 0.83 0.74 0.36 0.37 0.32 0.39 0.48 0.46 0.41 0.30 0.41 0.45 0.43 0.45 0.41 0.36 0.34 0.36 0.35 0.27 0.23 0.20 0.17 0.18 0.22 0.23 0.21 0.18 0.17 0.15 0.19 0.19 0.23 0.28 0.35 0.41 0.43 0.48 0.57 0.77 0.74 1.05 0.83
0.45 0.47 0.80 0.66 0.31 0.31 0.36 0.34 0.45 0.44 0.37 0.36 0.30 0.39 0.45 0.43 0.42 0.41 0.40 0.36 0.34 0.29 0.23 0.26 0.17 0.16 0.20 0.24 0.23 0.17 0.16 0.19 0.16 0.22 0.21 0.23 0.29 0.42 0.46 0.53 0.59 0.74 0.78 0.84 0.85
0.45 0.42 0.45 0.52 0.42 0.47 0.51 0.43 0.39 0.45 0.38 0.41 0.42 0.47 0.46 0.43 0.45 0.45 0.35 0.35 0.35 0.30 0.29 0.28 0.22 0.18 0.18 0.20 0.25 0.18 0.16 0.20 0.22 0.18 0.20 0.23 0.29 0.40 0.44 0.57 0.69 0.89 0.87 0.83 0.78
0.47 0.44 0.70 0.60 0.37 0.34 0.47 0.53 0.45 0.41 0.47 0.41 0.45 0.47 0.48 0.45 0.45 0.46 0.47 0.46 0.42 0.31 0.28 0.25 0.20 0.20 0.21 0.25 0.31 0.25 0.22 0.18 0.17 0.21 0.21 0.28 0.31 0.45 0.51 0.70 0.73 0.92 0.94 0.88 0.87
0.55 0.60 0.61 0.61 0.63 0.58 0.45 0.38 0.48 0.54 0.51 0.46 0.44 0.49 0.48 0.51 0.61 0.66 0.64 0.52 0.55 0.48 0.27 0.26 0.22 0.27 0.25 0.24 0.26 0.26 0.26 0.24 0.20 0.16 0.22 0.27 0.40 0.51 0.68 0.68 0.54 0.93 0.98 0.93 0.88
0.77 0.70 0.54 0.34 0.37 0.33 0.46 0.47 0.49 0.56 0.62 0.58 0.62 0.50 0.58 0.62 0.82 0.87 0.84 0.79 0.78 0.63 0.43 0.32 0.28 0.25 0.23 0.26 0.24 0.23 0.24 0.26 0.24 0.22 0.24 0.22 0.47 0.67 0.67 0.64 0.70 0.93 0.99 0.98 0.94

GFSSW_prec_pwat_345.txt.gz
Precipitable_Water
0.72 0.69 0.67 0.65 0.62 0.60 0.60 0.59 0.58 0.56 0.54 0.49 0.46 0.52 0.62 0.60 0.64 0.70 0.75 0.84 0.99 1.14 1.40 1.79 1.79 1.53 1.54 1.36 1.43 1.39 0.87 0.65 0.67 0.63 0.63 0.85 0.83 0.97 0.99 0.93 1.03 1.09 0.96 1.05 1.31
0.69 0.66 0.64 0.62 0.61 0.59 0.58 0.57 0.57 0.56 0.55 0.51 0.44 0.42 0.47 0.55 0.47 0.51 0.76 0.90 1.00 1.12 1.06 1.40 1.30 1.37 1.26 1.29 1.21 1.00 0.69 0.68 0.88 0.83 0.73 0.78 0.82 0.86 0.86 0.96 0.97 1.01 1.03 1.15 1.25
0.65 0.63 0.62 0.61 0.60 0.59 0.57 0.56 0.55 0.55 0.54 0.49 0.43 0.40 0.38 0.43 0.36 0.40 0.76 0.82 0.95 1.08 1.03 1.03 1.30 1.30 1.18 1.23 1.10 0.81 0.74 0.81 0.80 0.86 0.81 0.82 0.92 1.02 0.93 0.85 0.89 0.86 0.91 1.02 1.10
0.63 0.62 0.60 0.59 0.58 0.57 0.56 0.55 0.54 0.54 0.52 0.49 0.42 0.38 0.37 0.30 0.21 0.53 0.67 0.76 0.82 0.98 0.99 0.97 1.12 1.11 1.17 1.08 1.15 0.75 0.77 0.82 0.92 0.97 0.85 0.86 0.96 0.94 0.94 0.93 1.00 1.00 1.02 1.06 1.05
0.63 0.61 0.60 0.59 0.57 0.56 0.55 0.54 0.54 0.53 0.52 0.50 0.45 0.39 0.28 0.21 0.19 0.45 0.51 0.59 0.67 0.79 0.83 0.86 0.89 1.04 1.00 1.02 0.93 0.86 0.83 0.88 0.93 0.95 0.95 0.88 0.72 0.77 0.86 1.02 1.07 1.04 0.98 1.03 1.07
0.61 0.60 0.59 0.57 0.55 0.55 0.54 0.54 0.54 0.53 0.52 0.54 0.51 0.41 0.27 0.11 0.31 0.42 0.49 0.56 0.51 0.67 0.77 0.84 0.81 0.96 1.02 0.99 1.03 1.07 0.88 0.86 0.98 1.07 0.95 0.77 0.78 0.69 0.84 0.95 1.00 1.01 0.96 1.01 1.07
0.57 0.57 0.56 0.55 0.53 0.52 0.52 0.54 0.55 0.55 0.52 0.53 0.55 0.40 0.23 0.15 0.31 0.35 0.34 0.32 0.43 0.55 0.61 0.74 0.80 0.71 0.92 1.05 1.17 1.33 0.94 1.01 0.88 1.01 0.97 0.96 0.84 0.75 0.80 0.93 0.87 0.91 0.99 1.05 1.12
0.56 0.55 0.54 0.53 0.51 0.51 0.50 0.53 0.54 0.56 0.55 0.56 0.55 0.43 0.15 0.29 0.27 0.27 0.25 0.23 0.31 0.55 0.61 0.74 0.72 0.75 0.90 1.29 1.00 0.97 0.98 0.96 1.06 0.92 0.95 0.94 0.73 0.83 0.83 0.78 0.83 0.88 0.94 0.97 1.04
0.55 0.53 0.53 0.52 0.52 0.48 0.46 0.53 0.58 0.62 0.60 0.58 0.50 0.46 0.23 0.30 0.20 0.22 0.21 0.16 0.24 0.42 0.58 0.70 0.63 0.63 0.70 0.87 0.78 0.89 0.80 0.87 0.91 1.03 0.93 0.98 0.77 0.85 0.88 0.77 0.78 0.86 0.92 0.96 1.01
0.55 0.53 0.51 0.50 0.51 0.51 0.47 0.59 0.67 0.72 0.67 0.62 0.54 0.38 0.40 0.25 0.25 0.20 0.18 0.17 0.22 0.25 0.32 0.46 0.51 0.51 0.55 0.68 0.58 0.60 0.74 0.88 0.82 0.96 0.99 1.04 0.97 0.88 0.86 0.82 0.79 0.86 0.95 1.01 1.05
0.55 0.54 0.53 0.50 0.51 0.51 0.52 0.54 0.43 0.50 0.57 0.38 0.48 0.40 0.40 0.36 0.30 0.21 0.20 0.20 0.22 0.23 0.19 0.32 0.38 0.38 0.45 0.60 0.72 0.73 0.80 0.83 0.97 0.97 0.78 0.89 1.00 0.89 0.87 0.89 0.87 0.87 0.95 1.02 1.09
0.53 0.53 0.53 0.51 0.51 0.52 0.57 0.48 0.46 0.47 0.30 0.39 0.37 0.41 0.41 0.44 0.29 0.28 0.28 0.20 0.18 0.15 0.20 0.23 0.26 0.35 0.46 0.60 0.71 0.71 0.69 0.66 0.79 0.75 0.64 0.79 0.89 1.02 0.98 0.87 0.87 0.88 0.94 0.96 1.08
0.51 0.51 0.52 0.52 0.52 0.64 0.53 0.54 0.59 0.57 0.32 0.26 0.30 0.30 0.31 0.33 0.27 0.24 0.28 0.19 0.17 0.13 0.16 0.17 0.21 0.35 0.40 0.48 0.61 0.66 0.66 0.67 0.63 0.70 0.66 0.71 0.86 1.13 1.02 1.07 1.04 0.93 0.98 1.03 1.02
0.47 0.46 0.49 0.53 0.50 0.60 0.55 0.61 0.59 0.57 0.25 0.28 0.32 0.36 0.33 0.33 0.22 0.26 0.29 0.20 0.17 0.15 0.15 0.17 0.22 0.28 0.34 0.34 0.48 0.49 0.83 0.80 0.75 0.60 0.43 0.70 0.52 0.90 0.92 0.88 1.02 1.08 0.98 1.02 1.06
0.41 0.42 0.46 0.52 0.50 0.54 0.60 0.63 0.57 0.55 0.23 0.41 0.43 0.50 0.41 0.24 0.24 0.23 0.28 0.22 0.17 0.15 0.17 0.15 0.18 0.23 0.27 0.30 0.38 0.39 0.71 0.78 0.68 0.55 0.46 0.44 0.52 0.68 0.87 0.78 0.90 1.05 1.02 1.03 1.06
0.41 0.38 0.41 0.46 0.52 0.55 0.67 0.57 0.54 0.28 0.22 0.40 0.44 0.40 0.30 0.27 0.27 0.30 0.27 0.28 0.24 0.18 0.18 0.17 0.20 0.23 0.23 0.27 0.31 0.35 0.41 0.49 0.49 0.48 0.33 0.35 0.50 0.57 0.69 0.84 0.89 0.96 0.95 0.98 1.08
0.40 0.36 0.38 0.38 0.40 0.57 0.65 0.50 0.28 0.20 0.39 0.38 0.40 0.39 0.30 0.25 0.23 0.25 0.25 0.24 0.18 0.12 0.13 0.16 0.17 0.20 0.21 0.21 0.25 0.29 0.31 0.31 0.29 0.28 0.31 0.49 0.52 0.58 0.70 0.69 0.73 0.74 0.79 1.00 1.07
0.38 0.34 0.36 0.30 0.34 0.64 0.58 0.38 0.20 0.34 0.39 0.45 0.43 0.39 0.30 0.27 0.27 0.25 0.27 0.23 0.21 0.16 0.14 0.14 0.13 0.17 0.19 0.17 0.18 0.22 0.25 0.25 0.20 0.22 0.33 0.51 0.39 0.46 0.63 0.76 0.81 0.73 0.70 0.99 1.08
0.39 0.37 0.43 0.41 0.52 0.51 0.46 0.27 0.27 0.36 0.42 0.38 0.40 0.30 0.32 0.30 0.29 0.27 0.26 0.25 0.19 0.16 0.13 0.14 0.14 0.20 0.18 0.18 0.16 0.15 0.15 0.23 0.25 0.28 0.26 0.34 0.47 0.57 0.65 0.72 0.77 0.82 0.93 1.05 1.01
0.36 0.39 0.39 0.54 0.65 0.52 0.40 0.29 0.34 0.45 0.45 0.38 0.33 0.37 0.37 0.41 0.35 0.30 0.29 0.30 0.25 0.20 0.17 0.15 0.14 0.19 0.22 0.22 0.19 0.14 0.17 0.16 0.20 0.16 0.17 0.26 0.38 0.40 0.52 0.63 0.76 0.78 0.94 1.06 1.06
0.44 0.55 0.60 0.66 0.61 0.46 0.28 0.28 0.35 0.47 0.48 0.36 0.33 0.36 0.45 0.50 0.51 0.37 0.32 0.33 0.31 0.26 0.21 0.17 0.16 0.18 0.24 0.18 0.17 0.16 0.12 0.15 0.16 0.18 0.14 0.18 0.29 0.43 0.55 0.58 0.69 0.93 0.95 0.96 1.15
0.38 0.42 0.79 0.77 0.42 0.35 0.26 0.30 0.42 0.45 0.49 0.39 0.33 0.39 0.44 0.50 0.48 0.48 0.36 0.38 0.41 0.33 0.23 0.21 0.18 0.17 0.21 0.22 0.23 0.20 0.16 0.14 0.14 0.17 0.21 0.22 0.31 0.51 0.55 0.62 0.75 0.78 0.94 0.99 1.11
0.31 0.52 0.83 0.76 0.36 0.28 0.30 0.30 0.40 0.40 0.43 0.43 0.33 0.32 0.41 0.43 0.44 0.48 0.45 0.44 0.36 0.33 0.27 0.26 0.19 0.16 0.18 0.22 0.23 0.20 0.18 0.17 0.15 0.16 0.17 0.19 0.29 0.43 0.47 0.59 0.69 0.76 0.84 0.94 1.04
0.38 0.41 0.48 0.66 0.54 0.41 0.38 0.39 0.42 0.40 0.43 0.43 0.37 0.39 0.39 0.43 0.47 0.43 0.43 0.49 0.37 0.34 0.34 0.28 0.24 0.18 0.14 0.19 0.25 0.23 0.22 0.17 0.16 0.15 0.16 0.19 0.28 0.43 0.46 0.48 0.56 0.74 0.91 0.94 1.03
0.45 0.47 0.64 0.55 0.54 0.46 0.42 0.48 0.45 0.47 0.44 0.43 0.36 0.41 0.43 0.41 0.42 0.45 0.51 0.65 0.43 0.43 0.39 0.26 0.22 0.23 0.19 0.24 0.25 0.27 0.24 0.21 0.16 0.16 0.18 0.23 0.29 0.40 0.54 0.66 0.73 0.78 0.88 0.94 0.93
0.50 0.56 0.63 0.64 0.65 0.53 0.50 0.40 0.40 0.46 0.52 0.47 0.46 0.39 0.43 0.41 0.51 0.57 0.63 0.65 0.62 0.43 0.33 0.25 0.21 0.22 0.21 0.25 0.27 0.26 0.29 0.24 0.22 0.18 0.18 0.21 0.30 0.51 0.54 0.60 0.77 0.74 0.82 0.72 0.83
0.78 0.74 0.62 0.54 0.57 0.46 0.44 0.45 0.49 0.48 0.57 0.62 0.56 0.46 0.51 0.63 0.70 0.71 0.76 0.79 0.76 0.67 0.63 0.32 0.22 0.22 0.20 0.25 0.27 0.24 0.26 0.27 0.26 0.23 0.17 0.18 0.38 0.57 0.58 0.70 0.72 0.69 0.67 0.70 0.83